Flag for U.S.A. Weather past 2 weeks in Marengo, Indiana, U.S.A.

Now
92 °F

Passing clouds.


Feels Like: 99 °F
Forecast: 69 / 86 °F
Wind: 14 mph from Southwest

Location: Bowling Green-Warren County Regional Airport

Current Time: Aug 4, 2015 at 2:43:27 PM

Latest Report: Aug 4, 2015 at 1:53 PM


Visibility: 10 mi

Pressure: 29.98 "Hg

Humidity: 51%

Dew point: 71 °F

Location of MarengoLocation

Historic Weather in Marengo — Graph

°F

Marengo temperature yesterday

Maximum temperature yesterday: 94 °F (at 3:53 PM)
Minimum temperature yesterday: 67 °F (at 2:53 AM)
Average temperature yesterday: 81 °F

Past Weeks' High & Low Weather Summary

 TemperatureHumidityPressure
High94 °F (Jul 29, 5:53 PM)94% (Jul 21, 5:53 AM)30.10 "Hg (Jul 21, 5:53 AM)
Low61 °F (Aug 2, 6:53 AM)35% (Aug 1, 5:53 PM)29.78 "Hg (Jul 21, 3:53 AM)
Average79 °F71%29.96 "Hg
* Reported Jul 20 12:53 PM — Aug 4 12:53 PM, Marengo, Weather by CustomWeather, © 2015

Note: Actual official high and low records may vary slightly from our data, if they occured in-between our weather recording intervals... More about our weather records

Advertising

Marengo weather history for previous 24 hours

 ConditionsComfort  
Time TempWeatherWind HumidityBarometerVisibility
12:53 PM
Tue, Aug 4
90 °FSunny.10 mph56%29.98 "Hg10 mi
11:53 AM87 °FSunny.12 mph63%29.99 "Hg10 mi
10:53 AM86 °FSunny.6 mph67%29.99 "Hg10 mi
9:53 AM82 °FSunny.3 mph70%29.99 "Hg10 mi
8:53 AM77 °FSunny.No wind79%29.98 "Hg10 mi
7:53 AM75 °FSunny.5 mph85%29.97 "Hg10 mi
6:53 AM73 °FSunny.5 mph88%29.96 "Hg10 mi
5:53 AM73 °FClear.No wind88%29.94 "Hg10 mi
4:53 AM74 °FPassing clouds.No wind88%29.94 "Hg10 mi
3:53 AM77 °FPassing clouds.No wind79%29.93 "Hg10 mi
2:53 AM76 °FClear.No wind82%29.92 "Hg10 mi
1:53 AM78 °FClear.3 mph76%29.92 "Hg10 mi
12:53 AM81 °FClear.3 mph69%29.91 "Hg10 mi
11:53 PM
Mon, Aug 3
82 °FClear.5 mph70%29.91 "Hg10 mi
10:53 PM83 °FClear.6 mph68%29.91 "Hg10 mi
9:53 PM85 °FClear.6 mph65%29.89 "Hg10 mi
8:53 PM86 °FClear.5 mph61%29.88 "Hg10 mi
7:53 PM90 °FSunny.12 mph52%29.88 "Hg10 mi
6:53 PM93 °FSunny.8 mph46%29.87 "Hg10 mi
5:53 PM93 °FPassing clouds.14 mph46%29.87 "Hg10 mi
4:53 PM94 °FPassing clouds.16 mph44%29.88 "Hg10 mi
3:53 PM94 °FSunny.10 mph43%29.87 "Hg10 mi
2:53 PM93 °FSunny.9 mph47%29.88 "Hg10 mi
Weather by CustomWeather, © 2015

See weather overviewHow to use our weather pages